Regional Weather Roundup
Issued by NWS

Home | Current Version | Previous Version | Text Only | Print | Product List | Glossary Off
Versions: 1 2 3 4 5 6 7 8 9 10 11 12 13 14 15 16 17 18 19 20 21 22 23 24 25 26 27 28

000
ASUS45 KSLC 291610
RWRUT

UTAH REGIONAL WEATHER ROUNDUP
NATIONAL WEATHER SERVICE SALT LAKE CITY UT
1000 AM MDT WED OCT 29 2014

UTZ001>011-023>025-291700-

NORTHERN UTAH

CITY           SKY/WX    TMP DP  RH WIND       PRES   REMARKS
BRIGHAM CITY   MOSUNNY   39  27  62 CALM      30.32R
HILL AFB       NOT AVBL
LOGAN          MOSUNNY   33  27  78 CALM      30.30S
OGDEN          MOSUNNY   46  18  32 S7        30.30R
PROVO AIRPORT  MOSUNNY   45  21  39 CALM      30.33
SALT LAKE CITY MOSUNNY   47  25  42 SE6       30.30S
VERNAL         SUNNY     39  20  46 S3        30.36R
WENDOVER       CLOUDY    41  25  52 E5        30.30F
HEBER CITY     SUNNY     34  21  60 CALM      30.35F

$$

UTZ012>022-026-027-291700-

SOUTHERN/CENTRAL UTAH

CITY           SKY/WX    TMP DP  RH WIND       PRES   REMARKS
BLANDING       SUNNY     51  16  25 S5        30.41S
BRYCE CANYON   SUNNY     42  18  37 CALM      30.41R
CEDAR CITY       N/A     44  17  33 CALM      30.32R
DELTA          MOSUNNY   40  17  38 CALM      30.32S
HANKSVILLE       N/A     41  14  33 CALM      30.36S
MILFORD        SUNNY     40  17  39 S5        30.32R
MOAB/CYNLANDS  SUNNY     49  14  24 SE7       30.33R
PRICE          SUNNY     46  10  23 CALM      30.35R
ST GEORGE      SUNNY     50  16  25 CALM      30.29R
KANAB            N/A     52  19  28 NW13      30.34R

$$

REGIONAL REPORTS     COLORADO/ARIZONA

CITY           SKY/WX    TMP DP  RH WIND       PRES   REMARKS
CRAIG, CO      SUNNY     34  25  69 SW3       30.37
GRAND JUNCTION SUNNY     43  16  33 SE6       30.35S
RIFLE          SUNNY     37  14  38 CALM      30.39S
MONTROSE       SUNNY     43  15  32 CALM      30.39R
CORTEZ         SUNNY     45  19  35 CALM      30.36R
PAGE, AZ       SUNNY     54  19  25 W3        30.30R
GRAND CANYON   SUNNY     58  21  24 CALM      30.36S
KINGMAN        SUNNY     64  24  21 CALM      30.21R
FLAGSTAFF      SUNNY     53  32  44 N3        30.38R

$$

REGIONAL REPORTS    NEVADA/IDAHO/WYOMING

CITY           SKY/WX    TMP DP  RH WIND       PRES   REMARKS
LAS VEGAS, NV  SUNNY     66  21  18 S3        30.15R
ELY            SUNNY     41  15  35 S12       30.36R
ELKO           SUNNY     36  13  38 N3        30.33R
POCATELLO, ID  PTSUNNY   51  25  36 CALM      30.24S
BURLEY         PTSUNNY   50  28  42 VRB3      30.22R
EVANSTON, WY   SUNNY     40  11  30 SW15      30.33S WCI  32
ROCK SPRINGS   NOT AVBL
KEMMERER       MOSUNNY   37  14  38 SW3       30.33

$$



USA.gov is the U.S. government's official web portal to all federal, state and local government web resources and services.